Regional Weather Roundup
Issued by NWS

Home | Current Version | Previous Version | Graphics & Text | Print | Product List | Glossary On
Versions: 1 2 3 4 5 6 7 8 9 10 11 12 13 14 15 16 17 18 19 20 21 22 23 24 25 26 27 28 29 30 31 32 33 34 35 36 37 38 39 40 41 42 43 44 45 46 47 48 49 50
000
ASUS43 KTOP 211259
RWRKS

WEATHER ROUNDUP FOR KANSAS
NATIONAL WEATHER SERVICE GOODLAND KS
800 AM CDT THU AUG 21 2014

NOTE:  "FAIR" INDICATES FEW OR NO CLOUDS BELOW 12,000 FEET WITH NO
SIGNIFICANT WEATHER AND/OR OBSTRUCTIONS TO VISIBILITY.

KSZ001>006-013>018-027>032-041>047-211400-
NORTHWEST KANSAS

CITY           SKY/WX    TMP DP  RH WIND       PRES   REMARKS
GOODLAND       PTCLDY    65  58  78 NW6       29.93R
HAYS           MOSUNNY   79  63  57 S14       29.85R
HILL CITY      MOSUNNY   74  67  78 SW5       29.84R
RUSSELL        MOSUNNY   77  61  57 S15       29.83R
$$

KSZ061>065-074>080-084>089-211400-
SOUTHWEST KANSAS

CITY           SKY/WX    TMP DP  RH WIND       PRES   REMARKS
DODGE CITY     SUNNY     76  63  64 S10       29.90R
ELKHART          N/A     72  59  64 SW13        N/A
GARDEN CITY    SUNNY     74  64  71 SW5       29.90R
GREAT BEND     SUNNY     77  61  57 S15       29.86R
LIBERAL        CLEAR     79  61  53 SW16      29.93R
$$

KSZ066>073-081>083-090>101-211400-
SOUTHEAST KANSAS

CITY           SKY/WX    TMP DP  RH WIND       PRES   REMARKS
CHANUTE        SUNNY     78  70  76 S17       29.95R
COFFEYVILLE    SUNNY     79  71  76 S15       29.96R
HUTCHINSON     SUNNY     78  65  63 S17       29.89R
NEWTON         SUNNY     77  64  65 S21G26    29.94R
PARSONS        SUNNY     78  70  76 S8        29.97R
WICHITA INTL   MOSUNNY   77  68  73 S15       29.91R
WICHITA JABRA  SUNNY     78  68  71 S17G23    29.91R
WINFIELD       SUNNY     78  70  76 S16       29.94R
$$

KSZ007>012-019>026-033>040-048>060-102>105-211400-
NORTHEAST KANSAS

CITY           SKY/WX    TMP DP  RH WIND       PRES   REMARKS
CONCORDIA      PTSUNNY   76  66  71 S15       29.84R
EMPORIA        SUNNY     76  70  82 S17       29.91R
LAWRENCE       SUNNY     81  70  69 S13       29.90R
MANHATTAN      SUNNY     80  68  66 SW16      29.85S
OLATHE IND     SUNNY     78  70  76 S15G21    29.93R
OLATHE EXE     MOSUNNY   77  70  79 S10       29.92R
SALINA         SUNNY     79  66  64 S16G25    29.85R
TOPEKA BILLARD SUNNY     80  71  74 S15G24    29.88R
TOPEKA FORBES  SUNNY     79  70  74 S13       29.89R
$$


USA.gov is the U.S. government's official web portal to all federal, state and local government web resources and services.